• In Hungary
  • List of Countries
  • For 7 days
  • Water Temperature
  • Satellite Maps
  • Weather Map
  • News
  • Weather Widgets
  • user-avatar
    Login

    Hourly Weather Malye Lyulpany

    Today, 24 May, Thursday

    Time Temperature Precipitation Wind Pressure Humidity
    00:00 +15°C° 0 mm 2 mps 754 mmHg 89%
    01:00 +15°C° 0 mm 2 mps 754 mmHg 90%
    02:00 +14°C° 0 mm 2 mps 754 mmHg 92%
    03:00 +14°C° 0 mm 2 mps 754 mmHg 95%
    04:00 +15°C° 0 mm 2 mps 754 mmHg 90%
    05:00 +16°C° 0 mm 2 mps 754 mmHg 86%
    06:00 +16°C° 0 mm 2 mps 754 mmHg 81%
    07:00 +18°C° 0 mm 2 mps 754 mmHg 74%
    08:00 +19°C° 0 mm 3 mps 754 mmHg 66%
    09:00 +21°C° 0 mm 3 mps 755 mmHg 57%
    10:00 +21°C° 0 mm 3 mps 754 mmHg 54%
    11:00 +22°C° 0 mm 3 mps 754 mmHg 51%
    12:00 +24°C° 0 mm 3 mps 754 mmHg 48%
    13:00 +24°C° 0 mm 3 mps 754 mmHg 48%
    14:00 +24°C° 0 mm 3 mps 754 mmHg 48%
    15:00 +24°C° 0 mm 3 mps 753 mmHg 47%
    16:00 +22°C° 0.1 mm 3 mps 753 mmHg 54%
    17:00 +21°C° 0.1 mm 3 mps 753 mmHg 60%
    18:00 +20°C° 0.1 mm 3 mps 753 mmHg 66%
    19:00 +18°C° 0 mm 3 mps 753 mmHg 73%
    20:00 +16°C° 0 mm 3 mps 753 mmHg 79%
    21:00 +14°C° 0 mm 3 mps 753 mmHg 86%
    22:00 +13°C° 0 mm 3 mps 753 mmHg 84%
    23:00 +12°C° 0 mm 4 mps 753 mmHg 83%

    Tomorrow, 25 May, Friday

    Time Temperature Precipitation Wind Pressure Humidity
    00:00 +12°C° 0 mm 4 mps 753 mmHg 81%
    01:00 +11°C° 0 mm 4 mps 754 mmHg 75%
    02:00 +10°C° 0 mm 4 mps 754 mmHg 68%
    03:00 +8°C° 0 mm 4 mps 754 mmHg 62%
    04:00 +8°C° 0 mm 4 mps 755 mmHg 60%
    05:00 +8°C° 0 mm 5 mps 755 mmHg 59%
    06:00 +8°C° 0 mm 5 mps 755 mmHg 58%
    07:00 +9°C° 0 mm 6 mps 755 mmHg 53%
    08:00 +10°C° 0 mm 6 mps 756 mmHg 48%
    09:00 +11°C° 0 mm 6 mps 756 mmHg 43%
    10:00 +11°C° 0 mm 6 mps 756 mmHg 41%
    11:00 +11°C° 0 mm 6 mps 756 mmHg 39%
    12:00 +13°C° 0 mm 6 mps 756 mmHg 38%
    13:00 +13°C° 0 mm 6 mps 757 mmHg 37%
    14:00 +13°C° 0 mm 6 mps 757 mmHg 37%
    15:00 +13°C° 0 mm 6 mps 757 mmHg 36%
    16:00 +13°C° 0 mm 6 mps 757 mmHg 38%
    17:00 +12°C° 0 mm 5 mps 758 mmHg 41%
    18:00 +12°C° 0 mm 5 mps 758 mmHg 43%
    19:00 +10°C° 0 mm 4 mps 758 mmHg 47%
    20:00 +9°C° 0 mm 3 mps 759 mmHg 51%
    21:00 +7°C° 0 mm 3 mps 760 mmHg 56%
    22:00 +5°C° 0 mm 3 mps 760 mmHg 58%
    23:00 +5°C° 0 mm 2 mps 760 mmHg 60%

    Day after tomorrow, 26 May, Saturday

    Time Temperature Precipitation Wind Pressure Humidity
    00:00 +5°C° 0 mm 2 mps 761 mmHg 62%
    01:00 +4°C° 0 mm 2 mps 761 mmHg 63%
    02:00 +4°C° 0 mm 2 mps 761 mmHg 65%
    03:00 +3°C° 0 mm 2 mps 762 mmHg 66%
    04:00 +5°C° 0 mm 2 mps 762 mmHg 63%
    05:00 +6°C° 0 mm 2 mps 763 mmHg 59%
    06:00 +7°C° 0 mm 2 mps 763 mmHg 56%
    07:00 +9°C° 0 mm 3 mps 763 mmHg 50%
    08:00 +11°C° 0 mm 3 mps 763 mmHg 45%
    09:00 +13°C° 0 mm 3 mps 764 mmHg 39%
    10:00 +14°C° 0 mm 3 mps 763 mmHg 38%
    11:00 +16°C° 0 mm 3 mps 763 mmHg 37%
    12:00 +17°C° 0 mm 3 mps 763 mmHg 36%
    13:00 +17°C° 0 mm 3 mps 763 mmHg 36%
    14:00 +18°C° 0 mm 3 mps 762 mmHg 37%
    15:00 +19°C° 0 mm 3 mps 762 mmHg 37%
    16:00 +19°C° 0 mm 3 mps 761 mmHg 41%
    17:00 +19°C° 0 mm 3 mps 761 mmHg 45%
    18:00 +19°C° 0 mm 3 mps 761 mmHg 48%
    19:00 +17°C° 0 mm 3 mps 760 mmHg 53%
    20:00 +14°C° 0 mm 3 mps 760 mmHg 58%
    21:00 +13°C° 0 mm 3 mps 760 mmHg 62%
    22:00 +12°C° 0 mm 4 mps 760 mmHg 65%
    23:00 +12°C° 0 mm 4 mps 760 mmHg 67%

    27 May, Sunday

    Time Temperature Precipitation Wind Pressure Humidity
    00:00 +12°C° 0 mm 4 mps 760 mmHg 69%
    01:00 +12°C° 0 mm 4 mps 759 mmHg 73%
    02:00 +11°C° 0 mm 4 mps 759 mmHg 76%
    03:00 +11°C° 0 mm 4 mps 759 mmHg 79%
    04:00 +12°C° 0 mm 5 mps 759 mmHg 77%
    05:00 +13°C° 0 mm 5 mps 758 mmHg 75%
    06:00 +14°C° 0 mm 6 mps 758 mmHg 73%
    07:00 +15°C° 0 mm 6 mps 758 mmHg 67%
    08:00 +17°C° 0 mm 6 mps 757 mmHg 62%
    09:00 +20°C° 0 mm 7 mps 756 mmHg 56%
    10:00 +21°C° 0 mm 7 mps 756 mmHg 52%
    11:00 +22°C° 0 mm 8 mps 755 mmHg 47%
    12:00 +23°C° 0 mm 9 mps 755 mmHg 43%
    13:00 +23°C° 0 mm 8 mps 755 mmHg 45%
    14:00 +22°C° 0 mm 7 mps 754 mmHg 47%
    15:00 +21°C° 0 mm 7 mps 754 mmHg 50%
    16:00 +20°C° 0.9 mm 6 mps 754 mmHg 60%
    17:00 +17°C° 0.9 mm 5 mps 753 mmHg 70%
    18:00 +15°C° 0.9 mm 4 mps 753 mmHg 80%
    19:00 +13°C° 2.3 mm 4 mps 753 mmHg 84%
    20:00 +12°C° 2.3 mm 3 mps 754 mmHg 88%
    21:00 +11°C° 2.3 mm 3 mps 754 mmHg 92%
    22:00 +10°C° 0 mm 3 mps 754 mmHg 91%
    23:00 +9°C° 0 mm 2 mps 755 mmHg 91%

    28 May, Monday

    Time Temperature Precipitation Wind Pressure Humidity
    00:00 +8°C° 0 mm 2 mps 755 mmHg 90%
    01:00 +7°C° 0 mm 2 mps 755 mmHg 89%
    02:00 +6°C° 0 mm 2 mps 756 mmHg 88%
    03:00 +5°C° 0 mm 3 mps 756 mmHg 88%
    04:00 +5°C° 0 mm 3 mps 756 mmHg 84%
    05:00 +6°C° 0 mm 4 mps 757 mmHg 80%
    06:00 +6°C° 0 mm 4 mps 757 mmHg 76%
    07:00 +8°C° 0 mm 5 mps 757 mmHg 67%
    08:00 +9°C° 0 mm 5 mps 757 mmHg 58%
    09:00 +10°C° 0 mm 6 mps 757 mmHg 49%
    10:00 +10°C° 0 mm 6 mps 757 mmHg 48%
    11:00 +10°C° 0 mm 7 mps 758 mmHg 47%
    12:00 +11°C° 0 mm 7 mps 758 mmHg 45%
    13:00 +11°C° 0 mm 7 mps 758 mmHg 45%
    14:00 +11°C° 0 mm 7 mps 758 mmHg 44%
    15:00 +11°C° 0 mm 6 mps 758 mmHg 44%
    16:00 +11°C° 0 mm 6 mps 758 mmHg 46%
    17:00 +12°C° 0 mm 5 mps 758 mmHg 48%
    18:00 +11°C° 0 mm 4 mps 758 mmHg 50%
    19:00 +10°C° 0 mm 3 mps 758 mmHg 55%
    20:00 +8°C° 0 mm 3 mps 759 mmHg 60%
    21:00 +7°C° 0 mm 2 mps 759 mmHg 65%
    22:00 +6°C° 0 mm 2 mps 759 mmHg 67%
    23:00 +6°C° 0 mm 2 mps 759 mmHg 68%

    29 May, Tuesday

    Time Temperature Precipitation Wind Pressure Humidity
    00:00 +5°C° 0 mm 2 mps 759 mmHg 70%
    01:00 +6°C° 0 mm 2 mps 759 mmHg 69%
    02:00 +6°C° 0 mm 2 mps 758 mmHg 68%
    03:00 +7°C° 0 mm 3 mps 758 mmHg 66%
    04:00 +7°C° 0 mm 3 mps 758 mmHg 68%
    05:00 +8°C° 0 mm 3 mps 758 mmHg 69%
    06:00 +9°C° 0 mm 3 mps 758 mmHg 70%
    07:00 +11°C° 0 mm 3 mps 758 mmHg 66%
    08:00 +12°C° 0 mm 4 mps 758 mmHg 61%
    09:00 +14°C° 0 mm 5 mps 757 mmHg 57%
    10:00 +15°C° 0 mm 5 mps 757 mmHg 55%
    11:00 +16°C° 0 mm 5 mps 757 mmHg 53%
    12:00 +17°C° 0 mm 6 mps 756 mmHg 52%
    13:00 +17°C° 0 mm 5 mps 756 mmHg 51%
    14:00 +19°C° 0 mm 5 mps 756 mmHg 51%
    15:00 +19°C° 0 mm 5 mps 756 mmHg 51%
    16:00 +19°C° 0 mm 4 mps 755 mmHg 53%
    17:00 +19°C° 0 mm 3 mps 755 mmHg 56%
    18:00 +19°C° 0 mm 2 mps 755 mmHg 58%
    19:00 +18°C° 0 mm 3 mps 754 mmHg 62%
    20:00 +16°C° 0 mm 3 mps 754 mmHg 66%
    21:00 +14°C° 0 mm 3 mps 753 mmHg 70%
    22:00 +14°C° 0 mm 4 mps 752 mmHg 68%
    23:00 +15°C° 0 mm 4 mps 752 mmHg 66%
    Show more